Location: Boiro
(42.6475°N, 8.8834°W)
Time: 11:48:09
(UTC+02:00)

SL-8 DEB - Pass Details

Date: 06 July 2022
Orbit: 890 x 1013 km, 83.1° (Epoch: 16 August)

Event Time Altitude Azimuth Distance (km) Brightness Sun altitude
Rises 23:20:12 0° 8° (N) 3,588 ? -10.1°
Reaches altitude 10° 23:23:53 10° 30° (NNE) 2,616 ? -10.6°
Maximum altitude 23:27:16 15° 65° (ENE) 2,224 ? -11.0°
Drops below altitude 10° 23:30:37 10° 101° (E) 2,573 ? -11.5°
Enters shadow 23:30:54 - 103° (ESE) 2,631 ? -11.5°
